This is the latest recevied weather packets stored in our database for station/object KK7RJD. If no packets are shown the sender has not sent any weather packets the latest 10 day(s).
| Time | Temp. | Humidity | Pressure | Rain* | Wind** | Luminosity | Snow |
|---|---|---|---|---|---|---|---|
| 1777990433 | 3.33° C | 57% | 1016.6 hPa | 0 mm | - | 137 W/m² | - |
| 1777989826 | 2.78° C | 57% | 1016.7 hPa | 0 mm | - | 151 W/m² | - |
| 1777989523 | 2.78° C | 56% | 1016.6 hPa | 0 mm | - | 124 W/m² | - |
| 1777989220 | 2.78° C | 57% | 1016.7 hPa | 0 mm | - | 110 W/m² | - |
| 1777988916 | 2.78° C | 57% | 1016.6 hPa | 0 mm | - | 106 W/m² | - |
| 1777988613 | 2.78° C | 58% | 1016.4 hPa | 0 mm | - | 100 W/m² | - |
| 1777988309 | 2.78° C | 57% | 1016.6 hPa | 0 mm | - | 93 W/m² | - |
| 1777988006 | 2.78° C | 59% | 1016.5 hPa | 0 mm | - | 86 W/m² | - |
| 1777987702 | 2.78° C | 59% | 1016.4 hPa | 0 mm | - | 101 W/m² | - |
| 1777987399 | 2.78° C | 59% | 1016.5 hPa | 0 mm | - | 107 W/m² | - |
| 1777987096 | 2.22° C | 61% | 1016.5 hPa | 0 mm | - | 112 W/m² | - |
| 1777986793 | 2.22° C | 61% | 1016.4 hPa | 0 mm | - | 88 W/m² | - |
| 1777986491 | 2.22° C | 62% | 1016.4 hPa | 0 mm | - | 67 W/m² | - |
| 1777986189 | 2.22° C | 62% | 1016.2 hPa | 0 mm | - | 71 W/m² | - |
| 1777985886 | 1.67° C | 63% | 1016.1 hPa | 0 mm | - | 62 W/m² | - |
| 1777985583 | 1.67° C | 64% | 1016.1 hPa | 0 mm | - | 53 W/m² | - |
| 1777985280 | 1.11° C | 66% | 1016 hPa | 0 mm | - | 46 W/m² | - |
| 1777984977 | 1.11° C | 67% | 1016 hPa | 0 mm | - | 37 W/m² | - |
| 1777984672 | 0.56° C | 67% | 1015.8 hPa | 0 mm | - | 30 W/m² | - |
| 1777984369 | 0.56° C | 68% | 1015.9 hPa | 0 mm | - | 25 W/m² | - |
| 1777984066 | 0.56° C | 68% | 1015.8 hPa | 0 mm | - | 20 W/m² | - |
| 1777983763 | 0.56° C | 68% | 1015.7 hPa | 0 mm | - | 16 W/m² | - |
| 1777983459 | 0° C | 69% | 1015.8 hPa | 0 mm | - | 12 W/m² | - |
| 1777983156 | 0° C | 68% | 1015.8 hPa | 0 mm | - | 9 W/m² | - |
| 1777982852 | 0.56° C | 68% | 1015.6 hPa | 0 mm | - | 6 W/m² | - |
* Rain latest hour (hover to see other rain measurements)
** Current wind speed in m/s (hover to see current wind gust speed)